{"data":{"norad_id":54864,"epoch":"2026-05-25T02:30:14.224320Z","epoch_age_seconds":56065,"freshness":"FRESH","line1":"1 54864U 22177AW  26145.10433130 -.00004886  00000+0 -16836-3 0  9993","line2":"2 54864  43.0045  50.3295 0001034 242.9558 117.1188 15.27541788188778","mean_motion":15.27541788,"eccentricity":0.0001034,"inclination_deg":43.0045,"raan_deg":50.3295,"arg_perigee_deg":242.9558,"mean_anomaly_deg":117.1188,"bstar":-0.00016836,"rev_number":18877,"period_min":94.269106829829,"perigee_km":482.45406042591,"apogee_km":483.87297737322,"semimajor_km":6861.3005188996,"source":"CELESTRAK","updated_at":"2026-05-25T13:38:17.728528Z"}}